�������l�o���
Date,Time,MP-1(��Sv/h),MP-2(��Sv/h),MP-3(��Sv/h),MP-4(��Sv/h),MP-5(��Sv/h),MP-6(��Sv/h),MP-7(��Sv/h),MP-8(��Sv/h),����,����(m/s),���J
2017/01/28,00:00,1.065,1.798,1.171,2.030,1.402,0.557,1.022,0.948,���k��,6.6,��
2017/01/28,00:10,1.062,1.798,1.169,2.029,1.404,0.557,1.022,0.950,��,4.9,��
2017/01/28,00:20,1.062,1.797,1.172,2.028,1.401,0.559,1.021,0.951,���k��,5.4,��
2017/01/28,00:30,1.061,1.797,1.174,2.029,1.404,0.558,1.021,0.950,��,5.4,��
2017/01/28,00:40,1.061,1.799,1.168,2.028,1.406,0.557,1.022,0.951,��,5.1,��
2017/01/28,00:50,1.063,1.798,1.171,2.027,1.403,0.556,1.019,0.950,��,6.3,��
2017/01/28,01:00,1.062,1.796,1.170,2.026,1.403,0.556,1.020,0.950,���k��,4.5,��
2017/01/28,01:10,1.062,1.796,1.171,2.026,1.403,0.557,1.021,0.949,�k��,3.0,��
2017/01/28,01:20,1.062,1.795,1.171,2.028,1.403,0.556,1.020,0.950,��,3.7,��
2017/01/28,01:30,1.061,1.797,1.172,2.027,1.402,0.557,1.019,0.949,��,3.4,��
2017/01/28,01:40,1.062,1.797,1.171,2.025,1.404,0.557,1.018,0.950,���쐼,2.8,��
2017/01/28,01:50,1.063,1.798,1.169,2.027,1.403,0.557,1.019,0.948,��,5.7,��
2017/01/28,02:00,1.061,1.797,1.170,2.028,1.403,0.557,1.020,0.950,�k��,3.7,��
2017/01/28,02:10,1.060,1.795,1.170,2.027,1.405,0.556,1.020,0.949,�k,3.7,��
2017/01/28,02:20,1.063,1.799,1.168,2.029,1.401,0.556,1.020,0.949,�k�k��,2.9,��
2017/01/28,02:30,1.061,1.796,1.170,2.028,1.400,0.554,1.020,0.950,�k��,2.3,��
2017/01/28,02:40,1.059,1.798,1.169,2.026,1.403,0.557,1.022,0.949,�k,2.0,��
2017/01/28,02:50,1.060,1.796,1.169,2.024,1.402,0.556,1.022,0.948,�k��,2.2,��
2017/01/28,03:00,1.058,1.798,1.171,2.025,1.401,0.555,1.021,0.949,�k�k��,2.3,��
2017/01/28,03:10,1.060,1.794,1.168,2.023,1.400,0.557,1.018,0.949,�k��,2.3,��
2017/01/28,03:20,1.061,1.795,1.167,2.026,1.399,0.555,1.020,0.948,���쓌,1.2,��
2017/01/28,03:30,1.060,1.796,1.169,2.024,1.401,0.556,1.018,0.945,-,CALM,��
2017/01/28,03:40,1.059,1.797,1.170,2.023,1.401,0.556,1.020,0.947,���k��,1.7,��
2017/01/28,03:50,1.059,1.797,1.168,2.025,1.402,0.556,1.020,0.948,��,2.3,��
2017/01/28,04:00,1.060,1.791,1.167,2.023,1.403,0.555,1.020,0.948,���쐼,1.7,��
2017/01/28,04:10,1.059,1.795,1.169,2.026,1.402,0.554,1.019,0.948,�k�k��,2.0,��
2017/01/28,04:20,1.057,1.795,1.169,2.024,1.401,0.556,1.017,0.946,�k,2.3,��
2017/01/28,04:30,1.060,1.794,1.167,2.023,1.402,0.555,1.020,0.948,�k,3.3,��
2017/01/28,04:40,1.057,1.794,1.168,2.025,1.401,0.554,1.018,0.948,�k,3.6,��
2017/01/28,04:50,1.058,1.792,1.168,2.022,1.401,0.555,1.021,0.949,�k,2.5,��
2017/01/28,05:00,1.060,1.793,1.166,2.021,1.400,0.555,1.020,0.948,�k,3.3,��
2017/01/28,05:10,1.059,1.794,1.166,2.023,1.399,0.554,1.018,0.948,�k�k��,2.9,��
2017/01/28,05:20,1.059,1.793,1.166,2.020,1.398,0.557,1.020,0.946,�k�k��,2.3,��
2017/01/28,05:30,1.058,1.795,1.166,2.021,1.400,0.555,1.019,0.947,�k,2.2,��
2017/01/28,05:40,1.059,1.794,1.166,2.021,1.399,0.554,1.019,0.947,�k,2.2,��
2017/01/28,05:50,1.062,1.793,1.166,2.024,1.399,0.553,1.019,0.946,�k�k��,1.7,��
2017/01/28,06:00,1.059,1.795,1.166,2.020,1.401,0.553,1.018,0.949,�k�k��,2.0,��
2017/01/28,06:10,1.058,1.790,1.164,2.024,1.398,0.553,1.017,0.945,-,CALM,��
2017/01/28,06:20,1.058,1.792,1.165,2.023,1.399,0.553,1.018,0.946,�k,2.0,��
2017/01/28,06:30,1.056,1.794,1.167,2.021,1.397,0.555,1.017,0.947,-,CALM,��
2017/01/28,06:40,1.056,1.794,1.168,2.023,1.398,0.554,1.021,0.948,�쐼,0.8,��
2017/01/28,06:50,1.056,1.792,1.164,2.021,1.396,0.553,1.018,0.950,�k��,2.3,��
2017/01/28,07:00,1.057,1.792,1.163,2.021,1.395,0.552,1.018,0.948,�k,2.3,��
2017/01/28,07:10,1.055,1.793,1.161,2.020,1.399,0.554,1.019,0.948,�k,3.2,��
2017/01/28,07:20,1.057,1.794,1.153,2.023,1.400,0.554,1.018,0.948,�k,3.4,��
2017/01/28,07:30,1.056,1.792,1.163,2.020,1.396,0.551,1.020,0.947,�k�k��,2.3,��
2017/01/28,07:40,1.059,1.789,1.163,2.019,1.400,0.554,1.020,0.946,�k,2.2,��
2017/01/28,07:50,1.056,1.792,1.165,2.023,1.398,0.553,1.019,0.948,�k�k��,2.0,��
2017/01/28,08:00,1.055,1.789,1.162,2.025,1.398,0.553,1.019,0.947,�k,2.5,��
2017/01/28,08:10,1.057,1.791,1.160,2.022,1.397,0.554,1.018,0.947,�k,3.4,��
2017/01/28,08:20,1.058,1.794,1.162,2.020,1.400,0.553,1.020,0.947,�k,2.8,��
2017/01/28,08:30,1.059,1.796,1.164,2.023,1.401,0.553,1.020,0.949,�k,1.4,��
2017/01/28,08:40,1.056,1.790,1.164,2.020,1.399,0.554,1.019,0.949,���k��,2.5,��
2017/01/28,08:50,1.057,1.794,1.164,2.026,1.398,0.553,1.019,0.949,��,3.3,��
2017/01/28,09:00,1.061,1.797,1.162,2.026,1.400,0.553,1.020,0.948,���k��,2.0,��
2017/01/28,09:10,1.061,1.795,1.164,2.026,1.402,0.555,1.020,0.946,�k�k��,1.9,��
2017/01/28,09:20,1.061,1.794,1.165,2.025,1.402,0.555,1.021,0.950,�k�k��,2.2,��
2017/01/28,09:30,1.060,1.796,1.165,2.025,1.399,0.555,1.019,0.947,�k,3.2,��
2017/01/28,09:40,1.059,1.797,1.166,2.025,1.400,0.555,1.018,0.947,�k�k��,2.3,��
2017/01/28,09:50,1.061,1.798,1.168,2.026,1.400,0.556,1.020,0.948,�k�k��,2.6,��
2017/01/28,10:00,1.060,1.796,1.164,2.025,1.401,0.556,1.020,0.947,�k�k��,2.3,��
2017/01/28,10:10,1.061,1.795,1.167,2.027,1.401,0.555,1.019,0.949,�k��,2.8,��
2017/01/28,10:20,1.062,1.794,1.166,2.026,1.401,0.555,1.018,0.951,�k��,2.0,��
2017/01/28,10:30,1.060,1.799,1.168,2.023,1.401,0.557,1.019,0.949,���k��,1.5,�L
2017/01/28,10:40,1.062,1.795,1.167,2.025,1.402,0.558,1.021,0.952,���k��,1.9,�L
2017/01/28,10:50,1.063,1.796,1.167,2.028,1.403,0.557,1.022,0.948,�k�k��,2.0,��
2017/01/28,11:00,1.060,1.796,1.172,2.027,1.405,0.558,1.018,0.951,��,6.7,��
2017/01/28,11:10,1.065,1.797,1.169,2.027,1.403,0.556,1.020,0.949,��,7.9,��
2017/01/28,11:20,1.065,1.799,1.171,2.028,1.407,0.557,1.020,0.949,��,6.6,��
2017/01/28,11:30,1.067,1.797,1.169,2.029,1.405,0.557,1.021,0.949,��,7.7,��
2017/01/28,11:40,1.066,1.798,1.168,2.029,1.408,0.557,1.017,0.952,��,7.8,��
2017/01/28,11:50,1.069,1.798,1.169,2.029,1.408,0.555,1.019,0.952,��,8.7,��
2017/01/28,12:00,1.065,1.801,1.171,2.031,1.407,0.556,1.022,0.950,��,8.4,��
2017/01/28,12:10,1.068,1.801,1.169,2.032,1.405,0.559,1.021,0.948,��,8.6,��
2017/01/28,12:20,1.068,1.799,1.173,2.031,1.407,0.559,1.019,0.950,��,6.8,��
2017/01/28,12:30,1.067,1.799,1.173,2.030,1.407,0.558,1.020,0.952,��,8.4,��
2017/01/28,12:40,1.068,1.797,1.173,2.032,1.410,0.558,1.019,0.951,��,8.0,��
2017/01/28,12:50,1.068,1.800,1.172,2.032,1.409,0.558,1.021,0.952,��,9.7,��
2017/01/28,13:00,1.067,1.799,1.174,2.032,1.410,0.558,1.020,0.951,��,9.8,��
2017/01/28,13:10,1.066,1.802,1.176,2.035,1.409,0.558,1.019,0.951,��,10.9,��
2017/01/28,13:20,1.066,1.802,1.171,2.031,1.410,0.557,1.019,0.952,��,10.6,��
2017/01/28,13:30,1.071,1.801,1.176,2.034,1.409,0.560,1.021,0.950,��,9.2,��
2017/01/28,13:40,1.067,1.800,1.177,2.032,1.412,0.558,1.021,0.949,���쐼,8.8,��
2017/01/28,13:50,1.066,1.801,1.175,2.032,1.408,0.559,1.021,0.951,��,8.6,��
2017/01/28,14:00,1.069,1.802,1.172,2.036,1.410,0.560,1.021,0.950,��,9.0,��
2017/01/28,14:10,1.068,1.799,1.175,2.034,1.409,0.559,1.023,0.950,��,9.8,��
2017/01/28,14:20,1.070,1.802,1.173,2.035,1.412,0.559,1.021,0.948,��,8.6,��
2017/01/28,14:30,1.068,1.802,1.174,2.029,1.410,0.558,1.021,0.947,��,8.3,��
2017/01/28,14:40,1.068,1.801,1.176,2.035,1.411,0.558,1.024,0.947,��,8.8,��
2017/01/28,14:50,1.070,1.802,1.173,2.035,1.413,0.557,1.024,0.948,��,9.8,��
2017/01/28,15:00,1.068,1.800,1.175,2.035,1.411,0.560,1.023,0.949,��,8.3,��
2017/01/28,15:10,1.069,1.803,1.175,2.036,1.411,0.556,1.024,0.952,��,9.2,��
2017/01/28,15:20,1.068,1.801,1.175,2.037,1.410,0.559,1.023,0.951,��,8.1,��
2017/01/28,15:30,1.067,1.806,1.174,2.035,1.413,0.559,1.024,0.950,��,9.1,��
2017/01/28,15:40,1.069,1.806,1.175,2.037,1.412,0.559,1.024,0.950,��,7.5,��
2017/01/28,15:50,1.068,1.806,1.176,2.035,1.412,0.558,1.023,0.951,��,8.9,��
2017/01/28,16:00,1.068,1.804,1.175,2.034,1.412,0.558,1.022,0.950,��,10.5,��
2017/01/28,16:10,1.070,1.806,1.176,2.033,1.412,0.557,1.024,0.950,��,7.4,��
2017/01/28,16:20,1.067,1.805,1.175,2.036,1.408,0.557,1.024,0.950,��,7.5,��
2017/01/28,16:30,1.067,1.806,1.174,2.036,1.413,0.559,1.023,0.949,��,7.3,��
2017/01/28,16:40,1.070,1.803,1.177,2.036,1.409,0.558,1.022,0.949,��,6.8,��
2017/01/28,16:50,1.066,1.803,1.176,2.035,1.409,0.557,1.021,0.950,��,6.2,��
2017/01/28,17:00,1.065,1.803,1.174,2.031,1.410,0.560,1.021,0.950,��,4.6,��
2017/01/28,17:10,1.067,1.804,1.174,2.033,1.411,0.557,1.023,0.950,��,3.5,��
2017/01/28,17:20,1.067,1.803,1.175,2.032,1.410,0.558,1.021,0.948,���k��,3.0,��
2017/01/28,17:30,1.065,1.807,1.176,2.030,1.411,0.559,1.022,0.950,���k��,2.2,��
2017/01/28,17:40,1.068,1.802,1.172,2.032,1.409,0.558,1.021,0.949,���k��,2.2,��
2017/01/28,17:50,1.066,1.808,1.176,2.029,1.410,0.557,1.022,0.950,���k��,2.3,��
2017/01/28,18:00,1.064,1.801,1.174,2.032,1.410,0.558,1.021,0.950,�k��,2.6,��
2017/01/28,18:10,1.064,1.803,1.173,2.030,1.408,0.557,1.021,0.948,�k��,2.3,��
2017/01/28,18:20,1.064,1.803,1.172,2.032,1.410,0.558,1.021,0.950,�k�k��,2.6,��
2017/01/28,18:30,1.064,1.803,1.170,2.029,1.413,0.557,1.020,0.948,�k�k��,3.0,��
2017/01/28,18:40,1.063,1.802,1.170,2.031,1.408,0.555,1.020,0.949,�k��,3.3,��
2017/01/28,18:50,1.063,1.803,1.172,2.029,1.410,0.555,1.021,0.949,�k�k��,3.2,��
2017/01/28,19:00,1.063,1.799,1.173,2.029,1.413,0.558,1.020,0.948,�k�k��,4.0,��
2017/01/28,19:10,1.061,1.800,1.173,2.029,1.410,0.555,1.021,0.947,�k�k��,4.8,��
2017/01/28,19:20,1.064,1.802,1.171,2.030,1.408,0.555,1.018,0.949,�k�k��,5.3,��
2017/01/28,19:30,1.063,1.801,1.168,2.029,1.407,0.556,1.019,0.948,�k�k��,4.1,��
2017/01/28,19:40,1.063,1.801,1.171,2.028,1.410,0.556,1.020,0.949,�k��,4.3,��
2017/01/28,19:50,1.062,1.800,1.172,2.029,1.406,0.555,1.020,0.947,�k��,5.4,��
2017/01/28,20:00,1.063,1.800,1.170,2.029,1.409,0.557,1.019,0.948,�k��,6.7,��
2017/01/28,20:10,1.063,1.800,1.171,2.030,1.407,0.556,1.020,0.948,�k��,9.3,��
2017/01/28,20:20,1.063,1.804,1.170,2.033,1.409,0.556,1.020,0.949,�k��,10.2,��
2017/01/28,20:30,1.063,1.801,1.172,2.031,1.410,0.556,1.020,0.948,�k��,10.5,��
2017/01/28,20:40,1.062,1.804,1.172,2.032,1.410,0.556,1.020,0.947,�k��,10.6,��
2017/01/28,20:50,1.064,1.805,1.172,2.032,1.409,0.556,1.020,0.948,�k��,10.4,��
2017/01/28,21:00,1.063,1.802,1.174,2.029,1.409,0.552,1.019,0.950,���k��,12.0,��
2017/01/28,21:10,1.063,1.803,1.169,2.029,1.410,0.555,1.021,0.949,���k��,10.7,��
2017/01/28,21:20,1.062,1.805,1.171,2.031,1.406,0.556,1.020,0.949,���k��,10.2,��
2017/01/28,21:30,1.062,1.799,1.169,2.029,1.408,0.556,1.020,0.948,���k��,10.2,��
2017/01/28,21:40,1.066,1.802,1.170,2.030,1.407,0.555,1.021,0.949,���k��,10.5,��
2017/01/28,21:50,1.062,1.803,1.171,2.031,1.409,0.556,1.021,0.947,���k��,10.3,��
2017/01/28,22:00,1.062,1.803,1.169,2.032,1.409,0.556,1.023,0.950,���k��,10.5,��
2017/01/28,22:10,1.061,1.802,1.170,2.034,1.407,0.554,1.021,0.949,���k��,9.1,��
2017/01/28,22:20,1.063,1.800,1.170,2.033,1.408,0.554,1.018,0.949,���k��,8.4,��
2017/01/28,22:30,1.062,1.801,1.171,2.029,1.408,0.557,1.022,0.949,�k��,5.1,��
2017/01/28,22:40,1.062,1.805,1.171,2.029,1.409,0.554,1.019,0.948,�k�k��,2.3,��
2017/01/28,22:50,1.062,1.801,1.172,2.029,1.406,0.556,1.018,0.948,�k�k��,3.1,��
2017/01/28,23:00,1.060,1.802,1.171,2.030,1.407,0.555,1.021,0.947,�k�k��,5.0,��
2017/01/28,23:10,1.063,1.801,1.174,2.028,1.405,0.557,1.020,0.948,�k�k��,5.5,��
2017/01/28,23:20,1.063,1.805,1.171,2.028,1.406,0.553,1.021,0.950,�k,3.9,��
2017/01/28,23:30,1.059,1.800,1.171,2.030,1.407,0.556,1.023,0.949,�k�k��,5.8,��
2017/01/28,23:40,1.061,1.802,1.172,2.033,1.406,0.554,1.019,0.949,�k�k��,5.9,��
2017/01/28,23:50,1.063,1.799,1.171,2.028,1.409,0.556,1.021,0.949,�k�k��,5.4,��
